When you browse on this site, cookies collect data to enhance your experience and personalize the content and advertising you see.
Visit our Privacy Policy to learn more. By continuing to use the site, you agree to this use of cookies and data.
  • In Latvia
  • List of Countries
  • For 7 days
  • Water Temperature
  • Weather Map
  • Weather Widgets
  • user-avatar
    Login

    Hourly Weather Stepanakert

    Today, 23 September, Monday

    Time Temperature Precipitation Wind Pressure Humidity
    00:00 +11°C° 0 mm 1 mps 695 mmHg 71%
    01:00 +11°C° 0 mm 1 mps 694 mmHg 72%
    02:00 +11°C° 0 mm 1 mps 694 mmHg 73%
    03:00 +11°C° 0 mm 1 mps 694 mmHg 74%
    04:00 +11°C° 0 mm 1 mps 694 mmHg 73%
    05:00 +11°C° 0 mm 1 mps 694 mmHg 73%
    06:00 +11°C° 0 mm 1 mps 694 mmHg 72%
    07:00 +12°C° 0 mm 1 mps 694 mmHg 66%
    08:00 +14°C° 0 mm 1 mps 694 mmHg 59%
    09:00 +16°C° 0 mm 2 mps 695 mmHg 50%
    10:00 +17°C° 0 mm 2 mps 695 mmHg 48%
    11:00 +18°C° 0 mm 2 mps 694 mmHg 45%
    12:00 +19°C° 0 mm 2 mps 694 mmHg 42%
    13:00 +20°C° 0 mm 2 mps 693 mmHg 42%
    14:00 +20°C° 0 mm 2 mps 693 mmHg 43%
    15:00 +20°C° 0 mm 2 mps 692 mmHg 43%
    16:00 +19°C° 0 mm 2 mps 692 mmHg 47%
    17:00 +18°C° 0 mm 1 mps 692 mmHg 51%
    18:00 +16°C° 0 mm 1 mps 691 mmHg 56%
    19:00 +15°C° 0 mm 1 mps 692 mmHg 57%
    20:00 +15°C° 0 mm 1 mps 692 mmHg 58%
    21:00 +14°C° 0 mm 1 mps 693 mmHg 59%
    22:00 +14°C° 0 mm 1 mps 692 mmHg 61%
    23:00 +14°C° 0 mm 1 mps 692 mmHg 62%

    Tomorrow, 24 September, Tuesday

    Time Temperature Precipitation Wind Pressure Humidity
    00:00 +13°C° 0 mm 1 mps 692 mmHg 63%
    01:00 +13°C° 0 mm 1 mps 692 mmHg 65%
    02:00 +13°C° 0 mm 1 mps 692 mmHg 66%
    03:00 +12°C° 0 mm 1 mps 692 mmHg 68%
    04:00 +12°C° 0 mm 1 mps 692 mmHg 68%
    05:00 +12°C° 0 mm 1 mps 693 mmHg 69%
    06:00 +12°C° 0 mm 1 mps 693 mmHg 70%
    07:00 +14°C° 0 mm 1 mps 693 mmHg 65%
    08:00 +16°C° 0 mm 1 mps 694 mmHg 60%
    09:00 +19°C° 0 mm 1 mps 694 mmHg 55%
    10:00 +19°C° 0 mm 2 mps 694 mmHg 55%
    11:00 +20°C° 0 mm 2 mps 693 mmHg 54%
    12:00 +21°C° 0 mm 3 mps 693 mmHg 54%
    13:00 +21°C° 0 mm 3 mps 693 mmHg 55%
    14:00 +21°C° 0 mm 2 mps 692 mmHg 57%
    15:00 +21°C° 0 mm 2 mps 692 mmHg 59%
    16:00 +20°C° 0 mm 2 mps 692 mmHg 66%
    17:00 +19°C° 0 mm 1 mps 691 mmHg 73%
    18:00 +18°C° 0 mm 1 mps 691 mmHg 79%
    19:00 +16°C° 0 mm 1 mps 691 mmHg 81%
    20:00 +16°C° 0 mm 1 mps 691 mmHg 82%
    21:00 +16°C° 0 mm 1 mps 692 mmHg 83%
    22:00 +15°C° 0 mm 1 mps 691 mmHg 82%
    23:00 +15°C° 0 mm 1 mps 691 mmHg 82%

    Day after tomorrow, 25 September, Wednesday

    Time Temperature Precipitation Wind Pressure Humidity
    00:00 +15°C° 0 mm 1 mps 691 mmHg 81%
    01:00 +15°C° 0 mm 1 mps 691 mmHg 80%
    02:00 +14°C° 0 mm 1 mps 691 mmHg 78%
    03:00 +14°C° 0 mm 1 mps 691 mmHg 77%
    04:00 +14°C° 0 mm 1 mps 691 mmHg 76%
    05:00 +14°C° 0 mm 1 mps 691 mmHg 75%
    06:00 +14°C° 0 mm 1 mps 691 mmHg 74%
    07:00 +16°C° 0 mm 1 mps 691 mmHg 68%
    08:00 +19°C° 0 mm 1 mps 692 mmHg 62%
    09:00 +21°C° 0 mm 1 mps 692 mmHg 56%
    10:00 +21°C° 0 mm 2 mps 692 mmHg 53%
    11:00 +24°C° 0 mm 2 mps 692 mmHg 50%
    12:00 +25°C° 0 mm 3 mps 692 mmHg 46%
    13:00 +25°C° 0 mm 2 mps 692 mmHg 47%
    14:00 +25°C° 0 mm 2 mps 692 mmHg 48%
    15:00 +25°C° 0 mm 2 mps 692 mmHg 48%
    16:00 +24°C° 0 mm 2 mps 692 mmHg 55%
    17:00 +22°C° 0 mm 1 mps 691 mmHg 61%
    18:00 +20°C° 0 mm 1 mps 691 mmHg 68%
    19:00 +20°C° 0 mm 1 mps 692 mmHg 71%
    20:00 +19°C° 0 mm 1 mps 692 mmHg 74%
    21:00 +18°C° 0 mm 1 mps 692 mmHg 78%
    22:00 +18°C° 0 mm 1 mps 692 mmHg 80%
    23:00 +16°C° 0 mm 1 mps 692 mmHg 82%

    26 September, Thursday

    Time Temperature Precipitation Wind Pressure Humidity
    00:00 +16°C° 0 mm 1 mps 692 mmHg 84%
    01:00 +16°C° 0 mm 1 mps 692 mmHg 84%
    02:00 +15°C° 0 mm 1 mps 692 mmHg 84%
    03:00 +15°C° 0 mm 1 mps 692 mmHg 85%
    04:00 +14°C° 0 mm 0 mps 692 mmHg 84%
    05:00 +14°C° 0 mm 0 mps 692 mmHg 84%
    06:00 +14°C° 0 mm 0 mps 693 mmHg 84%
    07:00 +18°C° 0 mm 1 mps 693 mmHg 76%
    08:00 +19°C° 0 mm 1 mps 693 mmHg 69%
    09:00 +21°C° 0 mm 1 mps 694 mmHg 62%
    10:00 +21°C° 0 mm 2 mps 694 mmHg 60%
    11:00 +23°C° 0 mm 2 mps 693 mmHg 58%
    12:00 +24°C° 0 mm 2 mps 693 mmHg 55%
    13:00 +25°C° 0 mm 2 mps 692 mmHg 54%
    14:00 +25°C° 0 mm 2 mps 692 mmHg 52%
    15:00 +26°C° 0 mm 2 mps 691 mmHg 51%
    16:00 +24°C° 0 mm 2 mps 691 mmHg 58%
    17:00 +22°C° 0 mm 1 mps 691 mmHg 65%
    18:00 +21°C° 0 mm 1 mps 690 mmHg 72%
    19:00 +18°C° 0 mm 0 mps 690 mmHg 73%
    20:00 +18°C° 0 mm 0 mps 691 mmHg 74%
    21:00 +17°C° 0 mm 0 mps 691 mmHg 76%
    22:00 +17°C° 0 mm 0 mps 691 mmHg 78%
    23:00 +16°C° 0 mm 0 mps 691 mmHg 79%

    27 September, Friday

    Time Temperature Precipitation Wind Pressure Humidity
    00:00 +16°C° 0 mm 0 mps 691 mmHg 81%
    01:00 +16°C° 0 mm 0 mps 691 mmHg 82%
    02:00 +16°C° 0 mm 1 mps 691 mmHg 83%
    03:00 +16°C° 0 mm 1 mps 691 mmHg 84%
    04:00 +15°C° 0 mm 0 mps 691 mmHg 83%
    05:00 +15°C° 0 mm 0 mps 691 mmHg 83%
    06:00 +14°C° 0 mm 0 mps 691 mmHg 83%
    07:00 +18°C° 0 mm 1 mps 692 mmHg 76%
    08:00 +20°C° 0 mm 1 mps 692 mmHg 70%
    09:00 +21°C° 0 mm 2 mps 692 mmHg 63%
    10:00 +23°C° 0 mm 2 mps 692 mmHg 60%
    11:00 +24°C° 0 mm 2 mps 692 mmHg 58%
    12:00 +25°C° 0 mm 3 mps 692 mmHg 55%
    13:00 +25°C° 0 mm 3 mps 692 mmHg 55%
    14:00 +25°C° 0 mm 2 mps 691 mmHg 55%
    15:00 +26°C° 0 mm 2 mps 691 mmHg 55%
    16:00 +24°C° 0 mm 2 mps 690 mmHg 61%
    17:00 +23°C° 0 mm 1 mps 690 mmHg 66%
    18:00 +21°C° 0 mm 1 mps 690 mmHg 71%
    19:00 +21°C° 0 mm 1 mps 690 mmHg 72%
    20:00 +20°C° 0 mm 1 mps 691 mmHg 73%
    21:00 +20°C° 0 mm 1 mps 691 mmHg 73%
    22:00 +19°C° 0 mm 1 mps 691 mmHg 75%
    23:00 +19°C° 0 mm 1 mps 691 mmHg 77%

    28 September, Saturday

    Time Temperature Precipitation Wind Pressure Humidity
    00:00 +18°C° 0 mm 1 mps 691 mmHg 78%
    01:00 +18°C° 0 mm 1 mps 690 mmHg 76%
    02:00 +18°C° 0 mm 1 mps 690 mmHg 73%
    03:00 +18°C° 0 mm 1 mps 690 mmHg 71%
    04:00 +18°C° 0 mm 1 mps 690 mmHg 71%
    05:00 +18°C° 0 mm 1 mps 690 mmHg 70%
    06:00 +16°C° 0 mm 1 mps 690 mmHg 70%
    07:00 +19°C° 0 mm 1 mps 690 mmHg 64%
    08:00 +21°C° 0 mm 1 mps 690 mmHg 58%
    09:00 +24°C° 0 mm 1 mps 690 mmHg 53%
    10:00 +25°C° 0 mm 2 mps 690 mmHg 51%
    11:00 +26°C° 0 mm 3 mps 690 mmHg 49%
    12:00 +26°C° 0 mm 4 mps 691 mmHg 47%
    13:00 +26°C° 0 mm 4 mps 690 mmHg 47%
    14:00 +26°C° 0 mm 4 mps 690 mmHg 48%
    15:00 +26°C° 0 mm 4 mps 689 mmHg 48%
    16:00 +24°C° 0.1 mm 3 mps 690 mmHg 54%
    17:00 +21°C° 0.1 mm 3 mps 690 mmHg 59%
    18:00 +19°C° 0.1 mm 2 mps 690 mmHg 65%
    19:00 +19°C° 0.1 mm 2 mps 690 mmHg 67%
    20:00 +18°C° 0.1 mm 2 mps 691 mmHg 69%
    21:00 +18°C° 0.1 mm 2 mps 692 mmHg 71%
    22:00 +17°C° 0.2 mm 2 mps 692 mmHg 73%
    23:00 +18°C° 0.2 mm 1 mps 692 mmHg 74%
    Show more